Tracking 28790 objects as of 19-Apr-2024
HD Live streaming from Space Station
objects crossing your sky now

SL-14 DEB

Track SL-14 DEB now!
10-day predictions


NORAD ID: 26030
Int'l Code: 1991-068AU
Perigee: 1,340.3 km
Apogee: 1,462.4 km
Inclination: 82.7 °
Period: 113.7 minutes
Semi major axis: 7772 km
RCS: 0.0026 m2 (small)
Launch date: September 28, 1991
Source: Commonwealth of Independent States (former USSR) (CIS)
Launch site: PLESETSK MISSILE AND SPACE COMPLEX (PKMTR)

Note: This is SATELLITE DEBRIS
Your satellite tracking list
Your tracking list is empty




NASA's NSSDC Master Catalog

Two Line Element Set (TLE):
1 26030U 91068AU  24107.45079176  .00000331  00000-0  16656-2 0  9991
2 26030  82.6799 180.7387 0078546 292.9686  79.8447 12.66990715492336
Source of the keplerian elements: AFSPC